DB0TGO-14 Weather Reports


Display with metric or nautical units.
time (UTC)temp
F
wind
direction
speed
MPH
gust
MPH
rain 1hr
in
rain 24hr
in
rain mn
in
humidity
%
barometer
mb
20260906030055 56 270 5.0 9.0 0.00 0.09 0.00 87 1024.0
20260906025855 56 270 5.0 9.0 0.00 0.09 0.00 87 1024.0
20260906025700 56 248 5.0 7.0 0.00 0.09 0.00 87 1024.0
20260906025522 56 248 5.0 7.0 0.00 0.09 0.00 87 1024.0
20260906025500 56 225 5.0 7.0 0.00 0.09 0.00 87 1024.0
20260906025315 56 248 5.0 7.0 0.00 0.09 0.00 87 1024.0
20260906025117 56 270 5.0 7.0 0.00 0.09 0.00 87 1024.0
20260906024935 56 225 5.0 7.0 0.00 0.09 0.00 87 1024.1
20260906024740 56 270 5.0 7.0 0.00 0.09 0.00 87 1024.0
20260906024540 56 248 5.0 7.0 0.00 0.09 0.00 87 1024.0
20260906024350 56 225 5.0 8.0 0.00 0.09 0.00 87 1024.0
20260906024205 56 270 5.0 8.0 0.00 0.09 0.00 87 1023.9
20260906024010 56 270 5.0 8.0 0.00 0.09 0.00 87 1023.9
20260906023833 56 248 5.0 8.0 0.00 0.09 0.00 87 1024.0
20260906023717 56 225 5.0 9.0 0.00 0.09 0.00 87 1024.0
20260906023645 56 180 6.0 10.0 0.00 0.09 0.00 87 1023.9
20260906023453 56 248 6.0 10.0 0.00 0.09 0.00 87 1024.0
20260906023314 56 270 6.0 10.0 0.00 0.09 0.00 87 1024.0
20260906023117 56 225 6.0 9.0 0.00 0.09 0.00 86 1023.9
20260906022920 56 270 6.0 10.0 0.00 0.09 0.00 86 1023.9
20260906022730 56 225 6.0 10.0 0.00 0.09 0.00 86 1023.9
20260906022540 56 248 6.0 9.0 0.00 0.09 0.00 86 1023.8
20260906022400 56 292 6.0 9.0 0.00 0.09 0.00 86 1023.9
20260906022215 56 202 6.0 11.0 0.00 0.09 0.00 86 1023.9
20260906022030 56 292 6.0 11.0 0.00 0.09 0.00 86 1023.9
20260906022020 56 202 6.0 11.0 0.00 0.09 0.00 86 1023.8
20260906021830 56 225 5.0 11.0 0.00 0.09 0.00 86 1023.9
20260906021630 56 248 6.0 11.0 0.00 0.09 0.00 86 1023.9
20260906021445 56 248 6.0 11.0 0.00 0.09 0.00 86 1023.9
20260906021300 56 270 6.0 11.0 0.00 0.09 0.00 86 1023.8
20260906021105 56 270 6.0 11.0 0.00 0.09 0.00 86 1023.8
20260906020925 56 225 6.0 11.0 0.00 0.09 0.00 86 1023.8
20260906020730 56 248 6.0 11.0 0.00 0.09 0.00 86 1023.8
20260906020544 56 248 6.0 11.0 0.00 0.09 0.00 86 1023.8
20260906020450 56 270 6.0 11.0 0.00 0.09 0.00 86 1023.7
20260906020353 56 225 6.0 11.0 0.00 0.09 0.00 86 1023.7
20260906020215 56 248 6.0 11.0 0.00 0.09 0.00 86 1023.7
20260906020020 56 248 6.0 11.0 0.00 0.09 0.00 86 1023.7
20260906015824 56 292 5.0 9.0 0.00 0.09 0.00 86 1023.6
20260906015640 56 225 5.0 9.0 0.00 0.09 0.00 86 1023.6
20260906015440 56 270 5.0 9.0 0.00 0.09 0.00 86 1023.6
20260906015250 56 270 5.0 9.0 0.00 0.09 0.00 86 1023.5
20260906015104 56 270 5.0 9.0 0.00 0.09 0.00 86 1023.5
20260906014924 56 248 5.0 9.0 0.00 0.09 0.00 86 1023.5
20260906014734 56 248 5.0 6.0 0.00 0.09 0.00 87 1023.5
20260906014647 56 270 5.0 5.0 0.00 0.09 0.00 87 1023.5
20260906014545 56 225 5.0 8.0 0.00 0.09 0.00 87 1023.5
20260906014347 56 225 6.0 10.0 0.00 0.09 0.00 86 1023.5
20260906014200 56 292 6.0 10.0 0.00 0.09 0.00 86 1023.5
20260906014002 56 248 6.0 8.0 0.00 0.09 0.00 86 1023.5
20260906013805 56 270 6.0 8.0 0.00 0.09 0.00 86 1023.5
20260906013619 56 202 5.0 8.0 0.00 0.09 0.00 86 1023.4
20260906013435 56 248 5.0 8.0 0.00 0.09 0.00 86 1023.4
20260906013240 56 248 5.0 8.0 0.00 0.09 0.00 86 1023.4
20260906013138 56 248 6.0 8.0 0.00 0.09 0.00 86 1023.4
20260906013044 56 248 6.0 10.0 0.00 0.09 0.00 86 1023.4
20260906012900 56 248 6.0 10.0 0.00 0.09 0.00 86 1023.3
20260906012700 56 248 6.0 10.0 0.00 0.09 0.00 86 1023.3
20260906012505 56 270 6.0 10.0 0.00 0.09 0.00 86 1023.4
20260906012310 56 292 6.0 9.0 0.00 0.09 0.00 86 1023.3
20260906012110 56 248 6.0 9.0 0.00 0.09 0.00 86 1023.3
20260906011924 56 248 6.0 9.0 0.00 0.09 0.00 86 1023.3
20260906011740 56 292 5.0 8.0 0.00 0.09 0.00 87 1023.3
20260906011542 56 202 5.0 9.0 0.00 0.09 0.00 87 1023.2
20260906011502 56 225 5.0 9.0 0.00 0.09 0.00 87 1023.2
20260906011343 56 315 5.0 9.0 0.00 0.09 0.00 87 1023.2
20260906011144 56 248 5.0 9.0 0.00 0.09 0.00 87 1023.2
20260906010955 56 248 5.0 7.0 0.00 0.09 0.00 87 1023.2
20260906010804 56 292 5.0 8.0 0.00 0.09 0.00 87 1023.1
20260906010624 56 292 5.0 8.0 0.00 0.09 0.00 87 1023.1
20260906010435 56 270 5.0 8.0 0.00 0.09 0.00 87 1023.2
20260906010250 56 270 5.0 8.0 0.00 0.09 0.00 87 1023.1
20260906010109 56 248 5.0 8.0 0.00 0.09 0.00 87 1023.1
20260906005920 56 248 5.0 8.0 0.00 0.09 0.00 87 1023.1
20260906005730 56 202 5.0 7.0 0.00 0.09 0.00 87 1023.1
20260906005549 56 202 5.0 7.0 0.00 0.09 0.00 87 1023.0
20260906005355 56 270 5.0 11.0 0.00 0.09 0.00 87 1023.0
20260906005215 56 248 5.0 11.0 0.00 0.09 0.00 87 1023.1
20260906005040 57 248 5.0 11.0 0.00 0.09 0.00 87 1023.0
20260906004840 57 225 6.0 11.0 0.00 0.09 0.00 87 1023.1
20260906004645 57 225 5.0 9.0 0.00 0.09 0.00 87 1023.0
20260906004509 57 225 5.0 9.0 0.00 0.09 0.00 87 1023.0
20260906004315 57 225 5.0 9.0 0.00 0.09 0.00 87 1022.9
20260906004125 57 248 5.0 11.0 0.00 0.09 0.00 87 1023.0
20260906004045 57 270 6.0 11.0 0.00 0.09 0.00 87 1023.0
20260906003944 57 225 6.0 11.0 0.00 0.09 0.00 87 1023.0
20260906003750 57 270 6.0 11.0 0.00 0.09 0.00 87 1022.9
20260906003554 57 225 6.0 11.0 0.00 0.09 0.00 86 1022.9
20260906003410 57 292 6.0 11.0 0.00 0.09 0.00 86 1022.9
20260906003215 57 225 6.0 10.0 0.00 0.09 0.00 86 1022.9
20260906003035 57 202 5.0 10.0 0.00 0.09 0.00 86 1022.9
20260906002855 57 248 5.0 10.0 0.00 0.09 0.00 86 1022.8
20260906002715 57 248 5.0 10.0 0.00 0.09 0.00 86 1022.8
20260906002525 57 225 5.0 8.0 0.00 0.09 0.00 86 1022.8
20260906002423 57 225 5.0 8.0 0.00 0.09 0.00 86 1022.8
20260906002330 57 225 5.0 8.0 0.00 0.09 0.00 86 1022.8
20260906002130 57 248 5.0 7.0 0.00 0.09 0.00 85 1022.7
20260906001935 57 292 5.0 9.0 0.00 0.09 0.00 85 1022.8
20260906001734 57 248 6.0 9.0 0.00 0.09 0.00 85 1022.9
20260906001544 57 248 5.0 7.0 0.00 0.09 0.00 85 1022.7
20260906001355 57 292 5.0 9.0 0.00 0.09 0.00 85 1022.8
20260906001155 57 248 6.0 9.0 0.00 0.09 0.00 85 1022.6
20260906001004 57 292 6.0 9.0 0.00 0.09 0.00 85 1022.7
20260906000810 57 248 6.0 9.0 0.00 0.09 0.00 85 1022.7
20260906000707 57 248 6.0 8.0 0.00 0.09 0.00 85 1022.7
20260906000610 57 248 6.0 8.0 0.00 0.09 0.00 85 1022.7
20260906000418 57 248 6.0 8.0 0.00 0.09 0.00 84 1022.7
20260906000233 57 248 6.0 8.0 0.00 0.09 0.00 84 1022.7
20260906000040 57 248 6.0 7.0 0.00 0.09 0.00 84 1022.6
20260905235854 57 270 6.0 6.0 0.00 0.09 0.00 84 1022.6
20260905235700 57 270 6.0 6.0 0.00 0.09 0.00 84 1022.6
20260905235515 57 248 6.0 8.0 0.00 0.09 0.00 84 1022.6
20260905235315 57 270 6.0 8.0 0.00 0.09 0.00 84 1022.7
20260905235146 58 270 6.0 8.0 0.00 0.09 0.00 84 1022.6
20260905235115 58 292 5.0 8.0 0.00 0.09 0.00 84 1022.6
20260905234915 58 270 5.0 9.0 0.00 0.09 0.00 84 1022.6
20260905234720 58 225 5.0 9.0 0.00 0.09 0.00 84 1022.7
20260905234540 58 270 5.0 9.0 0.00 0.09 0.00 84 1022.6
20260905234355 58 248 5.0 9.0 0.00 0.09 0.00 84 1022.7
20260905234205 58 225 5.0 7.0 0.00 0.09 0.00 84 1022.6
20260905234015 58 292 5.0 10.0 0.00 0.09 0.00 83 1022.6
20260905233830 58 248 6.0 10.0 0.00 0.09 0.00 83 1022.6
20260905233647 58 225 6.0 10.0 0.00 0.09 0.00 83 1022.6
20260905233510 58 225 6.0 9.0 0.00 0.09 0.00 83 1022.5
20260905233334 58 248 6.0 9.0 0.00 0.09 0.00 83 1022.5
20260905233322 58 248 6.0 9.0 0.00 0.09 0.00 83 1022.7
20260905233143 58 248 6.0 9.0 0.00 0.09 0.00 83 1022.5
20260905232955 58 270 6.0 9.0 0.00 0.09 0.00 83 1022.6
20260905232755 58 270 6.0 10.0 0.00 0.09 0.00 83 1022.6
20260905232610 58 248 6.0 10.0 0.00 0.09 0.00 82 1022.5
20260905232425 58 248 6.0 10.0 0.00 0.09 0.00 82 1022.6
20260905232225 58 270 6.0 9.0 0.00 0.09 0.00 82 1022.5
20260905232040 58 225 6.0 10.0 0.00 0.09 0.00 82 1022.5
20260905231840 58 225 6.0 10.0 0.00 0.09 0.00 82 1022.5
20260905231713 58 270 6.0 10.0 0.00 0.09 0.00 82 1022.4
20260905231640 58 248 6.0 10.0 0.00 0.09 0.00 82 1022.4
20260905231440 58 225 6.0 10.0 0.00 0.09 0.00 82 1022.4
20260905231250 58 248 6.0 10.0 0.00 0.09 0.00 82 1022.3
20260905231105 58 225 6.0 11.0 0.00 0.09 0.00 81 1022.3
20260905230910 58 202 6.0 11.0 0.00 0.09 0.00 81 1022.3
20260905230730 58 225 6.0 11.0 0.00 0.09 0.00 81 1022.4
20260905230540 58 202 6.0 8.0 0.00 0.09 0.00 81 1022.3
20260905230400 59 248 6.0 10.0 0.00 0.09 0.00 81 1022.3
20260905230205 59 248 6.0 10.0 0.00 0.09 0.00 81 1022.4
20260905230020 59 248 6.0 10.0 0.00 0.09 0.00 80 1022.3
20260905225905 59 248 6.0 10.0 0.00 0.09 0.00 80 1022.3
20260905225820 59 248 6.0 10.0 0.00 0.09 0.00 80 1022.4
20260905225620 59 292 6.0 9.0 0.00 0.09 0.00 80 1022.4
20260905225440 59 248 6.0 11.0 0.00 0.09 0.00 80 1022.3
20260905225245 59 202 6.0 11.0 0.00 0.09 0.00 80 1022.3
20260905225045 59 270 6.0 11.0 0.00 0.09 0.00 79 1022.4
20260905224844 59 270 6.0 10.0 0.00 0.09 0.00 80 1022.4
20260905224700 59 225 6.0 11.0 0.00 0.09 0.00 79 1022.3
20260905224516 59 270 6.0 11.0 0.00 0.09 0.00 79 1022.3
20260905224320 59 248 6.0 10.0 0.00 0.09 0.00 80 1022.3
20260905224136 59 248 6.0 10.0 0.00 0.09 0.00 79 1022.3
20260905224039 59 270 6.0 11.0 0.00 0.09 0.00 79 1022.4
20260905223945 59 292 6.0 11.0 0.00 0.09 0.00 79 1022.3
20260905223805 59 270 6.0 11.0 0.00 0.09 0.00 79 1022.3
20260905223620 59 248 6.0 11.0 0.00 0.09 0.00 79 1022.2
20260905223433 59 248 6.0 11.0 0.00 0.09 0.00 79 1022.2
20260905223250 59 248 6.0 11.0 0.00 0.09 0.00 79 1022.3
20260905223103 59 270 6.0 11.0 0.00 0.09 0.00 79 1022.2
20260905222920 59 248 6.0 10.0 0.00 0.09 0.00 79 1022.1
20260905222721 59 225 7.0 10.0 0.00 0.09 0.00 79 1022.2
20260905222525 59 225 7.0 10.0 0.00 0.09 0.00 79 1022.1
20260905222340 59 248 7.0 10.0 0.00 0.09 0.00 79 1022.2
20260905222240 59 270 7.0 10.0 0.00 0.09 0.00 79 1022.1
20260905222205 59 270 7.0 10.0 0.00 0.09 0.00 79 1022.1
20260905222025 59 225 6.0 10.0 0.00 0.09 0.00 79 1022.1
20260905221830 59 248 6.0 10.0 0.00 0.09 0.00 79 1022.1
20260905221632 59 225 6.0 10.0 0.00 0.09 0.00 79 1022.1
20260905221455 59 225 6.0 10.0 0.00 0.09 0.00 79 1022.1
20260905221315 59 158 6.0 9.0 0.00 0.09 0.00 79 1022.1
20260905221125 59 248 6.0 9.0 0.00 0.09 0.00 80 1022.2
20260905220935 59 248 7.0 9.0 0.00 0.09 0.00 79 1022.2
20260905220750 59 248 7.0 9.0 0.00 0.09 0.00 79 1022.1
20260905220652 59 292 7.0 10.0 0.00 0.09 0.00 79 1022.1
20260905220604 59 292 7.0 10.0 0.00 0.09 0.00 79 1022.0
20260905220420 59 248 7.0 11.0 0.00 0.09 0.00 79 1022.1
20260905220235 59 248 7.0 11.0 0.00 0.09 0.00 79 1022.1
20260905220058 59 270 6.0 10.0 0.00 0.09 0.09 79 1022.1
20260905215920 59 248 6.0 10.0 0.00 0.09 0.09 79 1021.9
20260905215740 59 292 6.0 10.0 0.00 0.09 0.09 79 1021.9
20260905215540 59 248 6.0 10.0 0.00 0.09 0.09 79 1022.0
20260905215358 59 248 6.0 10.0 0.00 0.09 0.09 79 1021.9
20260905215210 59 292 6.0 10.0 0.00 0.09 0.09 79 1022.0
20260905215020 59 248 6.0 9.0 0.00 0.09 0.09 79 1021.9
20260905214948 59 248 6.0 9.0 0.00 0.09 0.09 79 1021.9
20260905214825 59 248 6.0 9.0 0.00 0.09 0.09 78 1021.9
20260905214625 59 292 6.0 9.0 0.00 0.09 0.09 79 1022.0
20260905214439 59 292 6.0 9.0 0.00 0.09 0.09 79 1021.9
20260905214248 59 248 6.0 9.0 0.00 0.09 0.09 79 1021.9
20260905214102 59 292 6.0 9.0 0.00 0.09 0.09 79 1021.8
20260905213910 59 292 6.0 9.0 0.00 0.09 0.09 78 1021.8
20260905213725 60 248 6.0 9.0 0.00 0.09 0.09 78 1021.8
20260905213550 60 292 6.0 10.0 0.00 0.09 0.09 78 1021.7
20260905213408 60 270 6.0 10.0 0.00 0.09 0.09 78 1021.8
20260905213342 60 292 6.0 10.0 0.00 0.09 0.09 78 1021.8
20260905213215 60 292 6.0 10.0 0.00 0.09 0.09 78 1021.8
20260905213035 60 225 6.0 7.0 0.00 0.09 0.09 79 1021.8
20260905212850 60 225 6.0 7.0 0.00 0.09 0.09 78 1021.8
20260905212650 60 248 6.0 9.0 0.00 0.09 0.09 79 1021.7
20260905212500 60 292 6.0 9.0 0.00 0.09 0.09 78 1021.6
20260905212300 60 248 6.0 7.0 0.00 0.09 0.09 78 1021.7
20260905212122 60 292 6.0 8.0 0.00 0.09 0.09 78 1021.7
20260905211945 60 270 6.0 8.0 0.00 0.09 0.09 78 1021.7
20260905211746 60 248 6.0 8.0 0.00 0.09 0.09 78 1021.7
20260905211550 60 248 6.0 9.0 0.00 0.09 0.09 78 1021.7
20260905211358 60 292 6.0 11.0 0.00 0.09 0.09 78 1021.6
20260905211200 60 292 6.0 11.0 0.00 0.09 0.09 78 1021.6
20260905211020 59 270 6.0 9.0 0.00 0.09 0.09 78 1021.6
20260905210837 60 270 5.0 8.0 0.00 0.09 0.09 79 1021.6
20260905210650 60 270 5.0 10.0 0.00 0.09 0.09 79 1021.5
20260905210453 60 248 6.0 10.0 0.00 0.09 0.09 78 1021.5
20260905210315 60 270 6.0 10.0 0.00 0.09 0.09 78 1021.5
20260905210139 60 292 5.0 8.0 0.00 0.09 0.09 79 1021.5
20260905210118 60 248 5.0 8.0 0.00 0.09 0.09 79 1021.5
20260905205955 60 248 5.0 8.0 0.00 0.09 0.09 78 1021.5
20260905205815 60 225 6.0 8.0 0.00 0.09 0.09 78 1021.6
20260905205632 60 248 6.0 7.0 0.00 0.09 0.09 78 1021.5
20260905205455 60 248 6.0 9.0 0.00 0.09 0.09 78 1021.5
20260905205319 60 270 6.0 9.0 0.00 0.09 0.09 78 1021.5
20260905205125 60 292 6.0 9.0 0.00 0.09 0.09 78 1021.4
20260905204935 60 225 7.0 10.0 0.00 0.09 0.09 78 1021.5
20260905204743 60 248 7.0 11.0 0.00 0.09 0.09 78 1021.5
20260905204555 60 292 7.0 11.0 0.00 0.09 0.09 77 1021.4
20260905204527 60 292 7.0 11.0 0.00 0.09 0.09 77 1021.4
20260905204415 60 270 6.0 11.0 0.00 0.09 0.09 77 1021.4
20260905204235 60 270 7.0 11.0 0.00 0.09 0.09 77 1021.4
20260905204055 60 225 6.0 11.0 0.00 0.09 0.09 78 1021.3
20260905203910 60 248 7.0 11.0 0.00 0.09 0.09 78 1021.4
20260905203719 60 248 7.0 12.0 0.00 0.09 0.09 77 1021.3
20260905203540 60 248 7.0 12.0 0.00 0.09 0.09 77 1021.4
20260905203405 60 292 7.0 12.0 0.00 0.09 0.09 77 1021.3
20260905203220 60 225 7.0 11.0 0.00 0.09 0.09 77 1021.3
20260905203012 60 270 7.0 11.0 0.00 0.09 0.09 77 1021.3
20260905202840 60 292 7.0 11.0 0.00 0.09 0.09 77 1021.4
20260905202700 60 270 7.0 11.0 0.00 0.09 0.09 77 1021.2
20260905202519 60 225 7.0 16.0 0.00 0.09 0.09 77 1021.3
20260905202321 60 270 7.0 16.0 0.00 0.09 0.09 77 1021.2
20260905202132 60 270 7.0 16.0 0.00 0.09 0.09 77 1021.2
20260905201932 60 292 7.0 10.0 0.00 0.09 0.09 77 1021.2
20260905201757 60 292 7.0 11.0 0.00 0.09 0.09 77 1021.1
20260905201600 60 270 6.0 11.0 0.00 0.09 0.09 77 1021.1
20260905201416 60 248 6.0 13.0 0.00 0.09 0.09 77 1021.2
20260905201332 60 248 6.0 13.0 0.00 0.09 0.09 77 1021.2
20260905201220 60 225 6.0 13.0 0.00 0.09 0.09 77 1021.1
20260905201039 60 292 6.0 13.0 0.00 0.09 0.09 77 1021.2
20260905200845 60 292 6.0 8.0 0.00 0.09 0.09 77 1021.1
20260905200659 60 248 6.0 8.0 0.00 0.09 0.09 78 1021.1
20260905200510 60 270 6.0 10.0 0.00 0.09 0.09 77 1021.1
20260905200313 60 292 6.0 10.0 0.00 0.09 0.09 78 1021.1
20260905200135 60 248 6.0 11.0 0.00 0.09 0.09 78 1021.1
20260905195949 60 248 6.0 11.0 0.00 0.09 0.09 78 1021.0
20260905195756 60 270 7.0 11.0 0.00 0.09 0.09 77 1021.1
20260905195605 60 158 6.0 9.0 0.00 0.09 0.09 78 1021.0
20260905195447 60 248 6.0 9.0 0.00 0.09 0.09 78 1021.0
20260905195423 60 248 6.0 9.0 0.00 0.09 0.09 78 1021.0
20260905195235 60 270 6.0 11.0 0.00 0.09 0.09 77 1021.0
20260905195057 60 292 6.0 11.0 0.00 0.09 0.09 77 1020.9
20260905194912 60 270 6.0 11.0 0.00 0.09 0.09 77 1020.9
20260905194715 60 270 6.0 9.0 0.00 0.09 0.09 77 1020.9
20260905194539 60 292 6.0 9.0 0.00 0.09 0.09 77 1020.8
20260905194355 60 270 6.0 10.0 0.00 0.09 0.09 77 1020.8
20260905194215 60 248 6.0 10.0 0.00 0.09 0.09 77 1020.7
20260905194020 60 248 7.0 10.0 0.00 0.09 0.09 77 1020.9
20260905193840 60 248 6.0 10.0 0.00 0.09 0.09 77 1020.8
20260905193737 60 270 6.0 11.0 0.00 0.09 0.09 77 1020.8
20260905193654 60 225 6.0 11.0 0.00 0.09 0.09 77 1020.8
20260905193500 60 248 6.0 11.0 0.00 0.11 0.09 77 1020.7
20260905193320 61 292 6.0 11.0 0.00 0.11 0.09 77 1020.8
20260905193123 61 225 6.0 9.0 0.00 0.11 0.09 77 1020.9
20260905192940 61 248 6.0 9.0 0.00 0.13 0.09 77 1020.7
20260905192750 61 202 7.0 9.0 0.00 0.13 0.09 77 1020.8
20260905192600 61 248 8.0 13.0 0.00 0.13 0.09 77 1020.7
20260905192402 61 270 8.0 15.0 0.00 0.14 0.09 76 1020.7
20260905192215 61 248 8.0 15.0 0.00 0.14 0.09 76 1020.7
20260905192117 61 248 8.0 15.0 0.00 0.14 0.09 76 1020.8
20260905192015 61 248 8.0 15.0 0.00 0.14 0.09 76 1020.7
20260905191830 61 292 8.0 15.0 0.00 0.14 0.09 75 1020.7
20260905191630 61 225 8.0 15.0 0.00 0.14 0.09 75 1020.6
20260905191445 61 225 8.0 15.0 0.00 0.14 0.09 75 1020.6
20260905191254 61 292 7.0 15.0 0.00 0.16 0.09 75 1020.6
20260905191055 61 292 8.0 15.0 0.00 0.16 0.09 74 1020.5
20260905190915 62 248 8.0 15.0 0.00 0.16 0.09 74 1020.6
20260905190730 62 270 8.0 15.0 0.00 0.16 0.09 74 1020.5
20260905190540 62 292 8.0 15.0 0.00 0.16 0.09 74 1020.6
20260905190405 62 292 9.0 15.0 0.00 0.16 0.09 74 1020.5
20260905190320 62 270 9.0 15.0 0.00 0.16 0.09 73 1020.5
20260905190210 62 292 9.0 15.0 0.00 0.16 0.09 73 1020.4
20260905190025 62 292 8.0 15.0 0.00 0.16 0.09 73 1020.4
20260905185835 62 225 8.0 15.0 0.00 0.16 0.09 73 1020.4
20260905185634 62 270 7.0 13.0 0.00 0.16 0.09 73 1020.4
20260905185455 62 248 7.0 13.0 0.00 0.16 0.09 73 1020.3
20260905185319 62 292 7.0 13.0 0.00 0.16 0.09 72 1020.3
20260905185125 62 248 7.0 11.0 0.00 0.16 0.09 73 1020.2
20260905184945 62 248 7.0 11.0 0.00 0.16 0.09 72 1020.2
20260905184800 62 270 7.0 12.0 0.00 0.16 0.09 73 1020.3
20260905184610 62 270 7.0 12.0 0.00 0.16 0.09 72 1020.2
20260905184425 62 225 7.0 12.0 0.00 0.16 0.09 73 1020.2
20260905184245 62 270 6.0 12.0 0.00 0.16 0.09 73 1020.3
20260905184105 62 248 6.0 12.0 0.00 0.16 0.09 73 1020.1
20260905183915 62 248 7.0 12.0 0.00 0.16 0.09 73 1020.1
20260905183725 62 202 7.0 10.0 0.00 0.16 0.09 73 1020.0
20260905183545 62 248 6.0 10.0 0.00 0.16 0.09 73 1020.1
20260905183355 62 248 6.0 11.0 0.00 0.16 0.09 73 1020.1
20260905183155 62 270 7.0 11.0 0.00 0.16 0.09 73 1020.1
20260905183010 62 270 6.0 11.0 0.00 0.16 0.09 73 1020.0
20260905182815 62 248 6.0 9.0 0.00 0.16 0.09 73 1020.0
20260905182620 62 248 6.0 9.0 0.00 0.16 0.09 73 1019.9
20260905182435 62 180 6.0 9.0 0.00 0.16 0.09 74 1019.9
20260905182255 62 225 6.0 10.0 0.00 0.16 0.09 74 1019.9
20260905182115 62 270 6.0 11.0 0.00 0.16 0.09 73 1019.9
20260905181938 62 292 6.0 11.0 0.00 0.16 0.09 73 1019.8
20260905181800 62 292 6.0 11.0 0.00 0.16 0.09 74 1019.8
20260905181633 62 225 5.0 9.0 0.00 0.16 0.09 74 1019.8
20260905181619 62 225 6.0 9.0 0.00 0.16 0.09 74 1019.8
20260905181435 62 248 6.0 9.0 0.00 0.16 0.09 74 1019.7
20260905181245 62 225 6.0 9.0 0.00 0.16 0.09 75 1019.7
20260905181055 62 68 6.0 10.0 0.00 0.16 0.09 75 1019.7
20260905180855 62 270 6.0 11.0 0.00 0.16 0.09 75 1019.7
20260905180700 62 248 6.0 11.0 0.00 0.16 0.09 75 1019.6
20260905180515 62 248 6.0 11.0 0.00 0.16 0.09 75 1019.6
20260905180315 62 248 5.0 11.0 0.00 0.16 0.09 75 1019.7
20260905180125 62 292 5.0 10.0 0.00 0.16 0.09 76 1019.6
20260905175950 62 270 5.0 10.0 0.00 0.17 0.09 77 1019.6
20260905175945 62 270 6.0 10.0 0.00 0.17 0.09 76 1019.6
20260905175800 62 270 5.0 8.0 0.00 0.17 0.09 77 1019.5
20260905175610 62 248 5.0 10.0 0.00 0.17 0.09 77 1019.5
20260905175420 62 270 5.0 10.0 0.00 0.17 0.09 77 1019.5
20260905175240 62 248 6.0 10.0 0.00 0.17 0.09 76 1019.4
20260905175047 62 292 5.0 8.0 0.00 0.17 0.09 76 1019.4
20260905174905 62 270 5.0 8.0 0.00 0.17 0.09 77 1019.6
20260905174710 62 248 5.0 8.0 0.00 0.17 0.09 77 1019.5
20260905174525 63 248 5.0 8.0 0.00 0.17 0.09 78 1019.5
20260905174428 63 225 5.0 8.0 0.00 0.17 0.09 77 1019.4
20260905174330 63 292 4.0 8.0 0.00 0.17 0.09 77 1019.3
20260905174145 63 292 5.0 8.0 0.00 0.17 0.09 77 1019.3
20260905173945 63 292 5.0 8.0 0.00 0.17 0.09 76 1019.3
20260905173803 63 270 5.0 9.0 0.00 0.19 0.09 76 1019.3
20260905173605 63 270 5.0 9.0 0.00 0.19 0.09 76 1019.2
20260905173410 63 292 5.0 10.0 0.00 0.19 0.09 76 1019.1
20260905173220 63 248 6.0 11.0 0.00 0.19 0.09 76 1019.1
20260905173040 63 292 6.0 11.0 0.00 0.19 0.09 75 1019.1
20260905172841 63 315 6.0 10.0 0.00 0.19 0.09 76 1019.2
20260905172705 63 225 6.0 11.0 0.00 0.19 0.09 76 1019.2
20260905172641 63 292 6.0 11.0 0.00 0.19 0.09 75 1019.1
20260905172520 63 292 6.0 11.0 0.00 0.19 0.09 75 1019.1
20260905172336 63 248 5.0 11.0 0.00 0.19 0.09 75 1019.1
20260905172140 63 292 5.0 7.0 0.00 0.20 0.09 76 1019.1
20260905171945 63 248 5.0 6.0 0.00 0.20 0.09 76 1019.0
20260905171745 63 248 5.0 6.0 0.00 0.20 0.09 76 1019.0
20260905171600 63 270 6.0 6.0 0.00 0.20 0.09 76 1018.9
20260905171419 63 315 6.0 10.0 0.00 0.20 0.09 76 1018.9
20260905171235 63 248 6.0 10.0 0.00 0.20 0.09 76 1018.9
20260905171045 63 248 6.0 10.0 0.00 0.20 0.09 76 1018.9
20260905170903 63 270 6.0 10.0 0.00 0.20 0.09 77 1018.8
20260905170834 63 270 6.0 10.0 0.00 0.20 0.09 77 1018.7
20260905170705 63 248 6.0 11.0 0.00 0.20 0.09 77 1018.8
20260905170515 63 248 6.0 11.0 0.00 0.20 0.09 78 1018.8
20260905170315 63 248 6.0 11.0 0.00 0.20 0.09 78 1018.8
20260905170125 63 248 6.0 11.0 0.00 0.20 0.09 78 1018.8
20260905165925 63 270 6.0 11.0 0.00 0.20 0.09 78 1018.7
20260905165739 63 270 6.0 11.0 0.00 0.20 0.09 77 1018.8
20260905165544 63 270 6.0 11.0 0.00 0.20 0.09 77 1018.7
20260905165405 63 292 5.0 10.0 0.00 0.20 0.09 79 1018.7
20260905165220 63 270 6.0 10.0 0.00 0.20 0.09 78 1018.7
20260905165030 63 202 6.0 10.0 0.00 0.20 0.09 78 1018.7
20260905164520 63 248 6.0 9.0 0.00 0.20 0.09 79 1018.6
20260905164325 63 248 6.0 11.0 0.00 0.20 0.09 79 1018.6
20260905164135 63 248 7.0 11.0 0.00 0.20 0.09 79 1018.7
20260905163945 63 248 7.0 11.0 0.00 0.20 0.09 78 1018.6
20260905163805 63 202 7.0 11.0 0.00 0.20 0.09 79 1018.6
20260905163612 63 202 7.0 11.0 0.00 0.20 0.09 79 1018.5
20260905163502 63 270 7.0 11.0 0.00 0.20 0.09 79 1018.6
20260905163432 63 180 7.0 11.0 0.00 0.20 0.09 79 1018.6
20260905163245 63 270 7.0 13.0 0.00 0.30 0.09 79 1018.5
20260905163100 63 270 7.0 13.0 0.00 0.30 0.09 79 1018.5
20260905162917 63 292 7.0 13.0 0.00 0.30 0.09 79 1018.5
20260905162735 64 292 7.0 9.0 0.00 0.33 0.09 78 1018.3
20260905162550 64 292 7.0 9.0 0.00 0.33 0.09 78 1018.4
20260905162400 64 270 7.0 9.0 0.00 0.33 0.09 78 1018.4
20260905162218 64 248 6.0 10.0 0.00 0.33 0.09 77 1018.3
20260905162028 64 248 6.0 10.0 0.00 0.33 0.09 77 1018.2
20260905161830 64 270 6.0 9.0 0.00 0.33 0.09 77 1018.3
20260905161809 64 270 6.0 9.0 0.00 0.33 0.09 76 1018.2
20260905161640 64 248 6.0 9.0 0.00 0.33 0.09 76 1018.2
20260905161440 64 248 6.0 13.0 0.00 0.33 0.09 76 1018.2
20260905161250 64 270 6.0 13.0 0.00 0.33 0.09 75 1018.0
20260905161108 64 292 6.0 13.0 0.00 0.33 0.09 76 1018.2
20260905160911 64 292 6.0 12.0 0.00 0.33 0.09 76 1018.2
20260905160715 64 292 6.0 12.0 0.00 0.33 0.09 76 1018.1
20260905160520 64 225 6.0 10.0 0.00 0.33 0.09 77 1018.3
20260905160321 64 225 6.0 10.0 0.00 0.33 0.09 77 1018.1
20260905160140 63 270 6.0 10.0 0.00 0.33 0.09 78 1018.0
20260905160002 63 292 6.0 10.0 0.00 0.33 0.09 78 1017.9
20260905155940 63 248 6.0 10.0 0.00 0.33 0.09 78 1017.9
20260905155755 63 248 6.0 10.0 0.00 0.33 0.09 79 1018.0
20260905155605 63 248 6.0 10.0 0.00 0.33 0.09 80 1018.0
20260905155424 62 292 6.0 10.0 0.00 0.33 0.09 80 1018.0
20260905155235 62 68 6.0 9.0 0.00 0.33 0.09 82 1018.0
20260905155054 62 292 6.0 11.0 0.00 0.33 0.09 82 1018.0
20260905154908 62 292 6.0 11.0 0.00 0.33 0.09 81 1018.0
20260905154714 62 248 6.0 11.0 0.00 0.33 0.09 83 1017.9
20260905154528 62 292 6.0 11.0 0.00 0.33 0.09 83 1017.9
20260905154330 62 270 7.0 9.0 0.00 0.33 0.09 84 1017.9
20260905154258 62 248 7.0 9.0 0.00 0.33 0.09 84 1017.9
20260905154140 62 292 7.0 13.0 0.00 0.33 0.09 84 1017.9
20260905153955 61 225 7.0 13.0 0.00 0.33 0.09 84 1017.9
20260905153808 61 225 7.0 13.0 0.00 0.33 0.09 84 1018.0
20260905153610 61 292 7.0 13.0 0.00 0.33 0.09 84 1017.9
20260905153430 61 248 7.0 11.0 0.00 0.33 0.09 85 1018.0
20260905153250 61 225 6.0 10.0 0.00 0.33 0.09 86 1017.8
20260905153054 61 292 6.0 10.0 0.00 0.33 0.09 85 1017.8
20260905152910 61 248 6.0 10.0 0.00 0.33 0.09 85 1017.9
20260905152725 61 270 6.0 11.0 0.00 0.33 0.09 85 1018.0
20260905152647 61 292 6.0 11.0 0.00 0.33 0.09 85 1017.9
20260905152535 61 248 6.0 10.0 0.00 0.33 0.09 85 1017.9
20260905152335 61 248 6.0 10.0 0.00 0.33 0.09 85 1017.9
20260905152135 61 292 6.0 11.0 0.00 0.33 0.09 85 1017.8
20260905151934 61 248 6.0 12.0 0.00 0.33 0.09 85 1017.8
20260905151745 61 248 7.0 12.0 0.00 0.33 0.09 85 1017.8
20260905151603 61 270 7.0 12.0 0.00 0.33 0.09 85 1017.7
20260905151415 61 292 7.0 12.0 0.00 0.33 0.09 85 1017.7
20260905151225 61 248 7.0 11.0 0.00 0.33 0.09 85 1017.8
20260905151122 60 248 6.0 11.0 0.00 0.33 0.09 86 1017.8
20260905151028 60 270 6.0 11.0 0.00 0.33 0.09 86 1017.8
20260905150835 60 270 6.0 11.0 0.00 0.33 0.09 87 1017.8
20260905150700 60 292 6.0 11.0 0.00 0.33 0.09 87 1017.7
20260905150500 60 248 6.0 8.0 0.00 0.33 0.09 88 1017.8
20260905150315 60 248 6.0 8.0 0.00 0.33 0.09 88 1017.8
20260905150115 60 270 6.0 10.0 0.05 0.33 0.09 89 1017.8
20260905145915 59 270 6.0 10.0 0.05 0.33 0.09 89 1017.8
20260905145725 59 270 6.0 10.0 0.05 0.33 0.09 90 1017.8
20260905145530 59 225 6.0 8.0 0.09 0.33 0.09 90 1017.8
20260905145338 59 292 6.0 8.0 0.09 0.33 0.09 91 1017.8
20260905145139 59 248 6.0 8.0 0.09 0.33 0.09 91 1017.8
20260905144950 59 248 6.0 8.0 0.09 0.33 0.09 91 1017.9
20260905144755 59 225 6.0 8.0 0.09 0.33 0.09 91 1017.8
20260905144610 59 248 6.0 8.0 0.09 0.33 0.09 92 1017.9
20260905144412 59 292 6.0 10.0 0.09 0.33 0.09 92 1017.9
20260905144235 59 202 6.0 11.0 0.09 0.33 0.09 91 1017.7
20260905144040 59 270 7.0 11.0 0.09 0.33 0.09 91 1017.7
20260905143850 59 270 7.0 11.0 0.09 0.33 0.09 91 1017.7
20260905143728 59 248 7.0 11.0 0.09 0.33 0.09 91 1017.7
20260905143705 59 270 7.0 11.0 0.09 0.33 0.09 91 1017.7
20260905143510 59 248 7.0 11.0 0.09 0.33 0.09 91 1017.6
20260905143315 59 248 7.0 13.0 0.09 0.33 0.09 91 1017.5
20260905143139 59 248 7.0 13.0 0.09 0.33 0.09 91 1017.6
20260905143000 59 270 7.0 13.0 0.09 0.33 0.09 90 1017.6
20260905142759 59 270 7.0 13.0 0.09 0.33 0.09 91 1017.5
20260905142610 59 248 7.0 13.0 0.09 0.33 0.09 91 1017.5
20260905142420 60 270 7.0 13.0 0.09 0.33 0.09 91 1017.6
20260905142240 60 270 8.0 13.0 0.09 0.33 0.09 92 1017.7
20260905142213 60 270 8.0 13.0 0.09 0.33 0.09 92 1017.7
20260905142045 60 315 8.0 13.0 0.09 0.33 0.09 91 1017.6
20260905141846 60 248 9.0 15.0 0.09 0.33 0.09 91 1017.6
20260905141648 60 292 8.0 19.0 0.09 0.33 0.09 92 1017.6
20260905141458 60 315 9.0 19.0 0.09 0.33 0.09 91 1017.7
20260905141305 60 292 9.0 20.0 0.09 0.33 0.09 91 1017.6
20260905141120 60 292 8.0 20.0 0.09 0.33 0.09 92 1017.5
20260905140943 60 270 7.0 17.0 0.09 0.33 0.09 92 1017.5
20260905140803 60 270 7.0 17.0 0.09 0.33 0.09 92 1017.3
20260905140610 60 292 6.0 17.0 0.09 0.33 0.09 92 1017.2
20260905140602 61 338 6.0 17.0 0.09 0.33 0.09 93 1017.2
20260905140430 61 270 6.0 11.0 0.09 0.33 0.09 93 1017.2
20260905140250 61 270 6.0 11.0 0.09 0.33 0.09 93 1017.2
20260905140100 62 270 6.0 20.0 0.09 0.33 0.09 92 1017.2
20260905135908 62 248 6.0 20.0 0.09 0.33 0.09 92 1017.1
20260905135710 63 248 8.0 20.0 0.09 0.33 0.09 91 1017.1
20260905135530 64 292 8.0 20.0 0.05 0.28 0.05 89 1017.0
20260905135332 64 292 9.0 20.0 0.05 0.28 0.05 88 1016.9
20260905135140 65 292 9.0 20.0 0.00 0.24 0.00 86 1016.8
20260905135000 65 248 9.0 20.0 0.00 0.24 0.00 83 1016.9
20260905134815 66 292 9.0 20.0 0.00 0.24 0.00 77 1016.9
20260905134630 67 292 9.0 20.0 0.00 0.24 0.00 75 1016.4
20260905134445 67 225 9.0 20.0 0.00 0.24 0.00 77 1016.3
20260905134245 68 180 10.0 20.0 0.00 0.24 0.00 74 1016.2
20260905134050 69 225 10.0 20.0 0.00 0.24 0.00 65 1016.2
20260905133858 69 202 9.0 20.0 0.00 0.24 0.00 62 1016.2
20260905133700 69 270 9.0 20.0 0.00 0.24 0.00 61 1016.0
20260905133502 70 315 9.0 20.0 0.00 0.24 0.00 61 1016.0
20260905133344 70 202 9.0 20.0 0.00 0.24 0.00 60 1016.0
20260905133324 70 248 9.0 20.0 0.00 0.24 0.00 60 1016.0
20260905133145 70 248 9.0 20.0 0.00 0.24 0.00 60 1015.8
20260905133014 70 202 9.0 20.0 0.00 0.24 0.00 59 1016.0
20260905132842 71 315 9.0 20.0 0.00 0.24 0.00 59 1015.8
20260905132630 71 248 9.0 20.0 0.00 0.24 0.00 58 1015.8
20260905132456 71 225 9.0 20.0 0.00 0.24 0.00 58 1015.9
20260905132247 71 180 9.0 20.0 0.00 0.24 0.00 58 1015.9
20260905132055 71 270 9.0 20.0 0.00 0.24 0.00 58 1015.9
20260905131900 71 225 9.0 20.0 0.00 0.24 0.00 56 1016.2
20260905131726 71 225 9.0 14.0 0.00 0.24 0.00 54 1016.0
20260905131608 71 270 10.0 16.0 0.00 0.24 0.00 55 1015.9
20260905131529 71 270 10.0 16.0 0.00 0.24 0.00 55 1015.9
20260905131341 71 270 10.0 16.0 0.00 0.24 0.00 55 1015.9
20260905131200 71 225 10.0 16.0 0.00 0.24 0.00 54 1015.9
20260905131033 71 292 10.0 15.0 0.00 0.24 0.00 54 1015.9
20260905130830 71 225 11.0 17.0 0.00 0.24 0.00 54 1016.0
20260905130656 71 248 11.0 17.0 0.00 0.24 0.00 54 1015.9
20260905130450 70 225 11.0 18.0 0.00 0.24 0.00 54 1016.0
20260905130348 70 292 12.0 18.0 0.00 0.24 0.00 54 1015.9
20260905130130 70 202 12.0 20.0 0.00 0.24 0.00 54 1015.9
20260905130038 70 248 12.0 23.0 0.00 0.24 0.00 54 1015.9
20260905125935 70 248 12.0 23.0 0.00 0.24 0.00 54 1015.9
20260905125745 70 248 12.0 23.0 0.00 0.24 0.00 55 1015.8
20260905125550 70 248 12.0 23.0 0.00 0.24 0.00 55 1015.9
20260905125405 70 270 11.0 23.0 0.00 0.24 0.00 55 1015.8
20260905125215 70 225 11.0 23.0 0.00 0.24 0.00 55 1016.0
20260905125020 70 248 11.0 19.0 0.00 0.24 0.00 55 1016.0
20260905124843 70 292 10.0 22.0 0.00 0.24 0.00 56 1016.0
20260905124655 70 180 10.0 22.0 0.00 0.24 0.00 57 1015.9
20260905124500 70 270 10.0 22.0 0.00 0.24 0.00 56 1015.9
20260905124313 70 248 10.0 22.0 0.00 0.24 0.00 57 1015.9
20260905124120 70 292 10.0 22.0 0.00 0.24 0.00 57 1016.1
20260905123926 70 225 10.0 17.0 0.00 0.24 0.00 57 1015.9
20260905123743 70 248 10.0 17.0 0.00 0.24 0.00 59 1016.0
20260905123602 70 248 10.0 17.0 0.00 0.24 0.00 59 1016.0
20260905123405 70 248 10.0 17.0 0.00 0.24 0.00 60 1016.0
20260905123210 70 202 10.0 17.0 0.00 0.24 0.00 60 1016.1
20260905123030 70 270 10.0 17.0 0.00 0.24 0.00 59 1015.9
20260905122846 70 225 9.0 17.0 0.00 0.24 0.00 59 1016.0
20260905122714 70 248 9.0 17.0 0.00 0.24 0.00 58 1016.0
20260905122705 70 248 9.0 17.0 0.00 0.24 0.00 58 1015.9
20260905122515 70 270 9.0 17.0 0.00 0.24 0.00 59 1016.0
20260905122326 70 248 9.0 17.0 0.00 0.24 0.00 59 1016.0
20260905122140 70 292 10.0 17.0 0.00 0.24 0.00 60 1016.0
20260905121955 70 248 10.0 17.0 0.00 0.24 0.00 60 1015.9
20260905121805 70 202 10.0 16.0 0.00 0.24 0.00 60 1015.9
20260905121625 69 315 10.0 20.0 0.00 0.24 0.00 60 1015.9
20260905121440 69 248 10.0 20.0 0.00 0.24 0.00 61 1016.1
20260905121255 69 248 9.0 20.0 0.00 0.24 0.00 61 1016.1
20260905121138 69 202 9.0 17.0 0.00 0.24 0.00 61 1016.1
20260905121055 69 292 9.0 17.0 0.00 0.24 0.00 62 1016.0
20260905120859 69 225 9.0 15.0 0.00 0.24 0.00 61 1016.1
20260905120705 69 270 9.0 16.0 0.00 0.24 0.00 62 1015.9
20260905120515 68 248 9.0 16.0 0.00 0.24 0.00 62 1016.2
20260905120325 68 292 9.0 16.0 0.00 0.24 0.00 62 1016.1
20260905120145 68 270 9.0 14.0 0.00 0.24 0.00 63 1016.1
20260905120000 68 202 9.0 14.0 0.00 0.24 0.00 63 1016.2
20260905115800 69 202 8.0 14.0 0.00 0.24 0.00 63 1016.2
20260905115610 69 225 8.0 13.0 0.00 0.24 0.00 63 1016.3
20260905115415 69 225 8.0 12.0 0.00 0.24 0.00 64 1016.2
20260905115225 69 225 8.0 12.0 0.00 0.24 0.00 63 1016.2
20260905115035 69 248 8.0 12.0 0.00 0.24 0.00 62 1016.1
20260905114855 69 225 9.0 15.0 0.00 0.24 0.00 62 1016.2
20260905114715 69 202 9.0 15.0 0.00 0.24 0.00 61 1016.2
20260905114530 68 180 8.0 15.0 0.00 0.24 0.00 60 1016.2
20260905114344 68 248 8.0 12.0 0.00 0.24 0.00 59 1016.3
20260905114205 68 225 8.0 12.0 0.00 0.24 0.00 62 1016.2
20260905114015 67 225 8.0 16.0 0.00 0.24 0.00 61 1016.1
20260905113815 67 315 9.0 12.0 0.00 0.24 0.00 62 1016.2
20260905113625 67 202 9.0 18.0 0.00 0.24 0.00 64 1016.2
20260905113430 67 135 9.0 18.0 0.00 0.24 0.00 64 1016.2
20260905113243 67 225 10.0 20.0 0.00 0.24 0.00 64 1016.3
20260905113050 67 248 10.0 20.0 0.00 0.24 0.00 64 1016.3
20260905112850 67 270 11.0 20.0 0.00 0.24 0.00 63 1016.2
20260905112655 67 225 10.0 20.0 0.00 0.24 0.00 63 1016.3
20260905112515 67 248 11.0 20.0 0.00 0.24 0.00 62 1016.2
20260905112334 67 225 11.0 20.0 0.00 0.24 0.00 62 1016.1
20260905112140 67 225 10.0 17.0 0.00 0.24 0.00 62 1016.3
20260905112013 68 292 10.0 17.0 0.00 0.24 0.00 62 1016.2
20260905111958 68 248 10.0 17.0 0.00 0.24 0.00 62 1016.3
20260905111816 68 292 10.0 17.0 0.00 0.24 0.00 62 1016.2
20260905111625 68 292 10.0 17.0 0.00 0.24 0.00 61 1016.2
20260905111440 68 248 10.0 18.0 0.00 0.24 0.00 60 1016.2
20260905111300 68 248 10.0 18.0 0.00 0.24 0.00 59 1016.2
20260905111113 68 225 10.0 24.0 0.00 0.24 0.00 61 1016.1
20260905110922 69 225 10.0 24.0 0.00 0.24 0.00 60 1016.1
20260905110746 69 225 10.0 24.0 0.00 0.24 0.00 60 1016.2
20260905110557 69 315 9.0 12.0 0.00 0.24 0.00 58 1016.0
20260905110415 69 202 10.0 15.0 0.00 0.24 0.00 59 1016.1
20260905110230 69 292 9.0 17.0 0.00 0.24 0.00 59 1016.0
20260905110035 69 270 9.0 17.0 0.00 0.24 0.00 60 1016.0
20260905105855 69 292 9.0 17.0 0.00 0.24 0.00 60 1016.1
20260905105705 69 270 9.0 16.0 0.00 0.24 0.00 59 1016.1
20260905105506 69 292 9.0 16.0 0.00 0.24 0.00 60 1016.1
20260905105330 69 248 9.0 16.0 0.00 0.24 0.00 59 1016.0
20260905105140 68 270 9.0 16.0 0.00 0.24 0.00 59 1016.0
20260905104950 68 248 9.0 13.0 0.00 0.24 0.00 59 1016.0
20260905104848 68 292 9.0 13.0 0.00 0.24 0.00 61 1016.1
20260905104755 68 292 9.0 13.0 0.00 0.24 0.00 61 1016.1
20260905104605 68 248 9.0 13.0 0.00 0.24 0.00 61 1016.0
20260905104415 68 315 9.0 14.0 0.00 0.24 0.00 61 1016.0
20260905104226 68 225 9.0 14.0 0.00 0.24 0.00 61 1016.1
20260905104030 68 248 9.0 15.0 0.00 0.24 0.00 62 1016.0
20260905103840 68 270 10.0 15.0 0.00 0.24 0.00 62 1016.0
20260905103652 68 202 9.0 16.0 0.00 0.24 0.00 62 1016.1
20260905103500 68 248 9.0 16.0 0.00 0.24 0.00 63 1016.1
20260905103315 68 248 9.0 16.0 0.00 0.24 0.00 62 1016.3
20260905103120 67 292 9.0 15.0 0.00 0.24 0.00 61 1016.1
20260905103018 67 270 9.0 15.0 0.00 0.24 0.00 62 1016.2
20260905102940 67 270 9.0 15.0 0.00 0.24 0.00 62 1016.2
20260905102750 67 202 10.0 18.0 0.00 0.24 0.00 62 1016.3
20260905102614 67 202 11.0 18.0 0.00 0.24 0.00 62 1016.2
20260905102439 67 270 11.0 18.0 0.00 0.24 0.00 62 1016.2
20260905102250 67 248 11.0 17.0 0.00 0.24 0.00 63 1016.3
20260905102110 67 270 10.0 17.0 0.00 0.24 0.00 64 1016.2
20260905101920 67 248 10.0 17.0 0.00 0.24 0.00 64 1016.3
20260905101742 67 248 10.0 18.0 0.00 0.24 0.00 64 1016.2
20260905101600 67 202 10.0 18.0 0.00 0.24 0.00 65 1016.3
20260905101415 68 225 10.0 18.0 0.00 0.24 0.00 64 1016.0
20260905101220 68 248 10.0 17.0 0.00 0.24 0.00 63 1016.1
20260905101025 68 248 10.0 17.0 0.00 0.24 0.00 61 1016.1
20260905100842 68 225 10.0 16.0 0.00 0.24 0.00 60 1016.0
20260905100655 68 225 10.0 15.0 0.00 0.24 0.00 62 1016.1
20260905100500 67 202 10.0 18.0 0.00 0.24 0.00 62 1016.1
20260905100320 67 225 9.0 19.0 0.00 0.24 0.00 63 1016.1
20260905100138 67 292 9.0 19.0 0.00 0.24 0.00 63 1016.2
20260905095937 67 248 9.0 18.0 0.00 0.24 0.00 64 1016.2
20260905095745 67 202 9.0 18.0 0.00 0.24 0.00 63 1016.3
20260905095610 67 292 9.0 17.0 0.00 0.24 0.00 64 1016.3
20260905095415 67 270 9.0 19.0 0.00 0.24 0.00 64 1016.3
20260905095220 67 270 8.0 19.0 0.00 0.24 0.00 65 1016.3
20260905095035 66 270 7.0 9.0 0.00 0.24 0.00 69 1016.4
20260905094851 66 270 7.0 9.0 0.00 0.24 0.00 69 1016.4
20260905094709 66 270 7.0 9.0 0.00 0.24 0.00 69 1016.4
20260905094515 66 270 7.0 9.0 0.00 0.24 0.00 69 1016.3
20260905094344 66 270 9.0 15.0 0.00 0.24 0.00 69 1016.3
20260905094017 66 292 9.0 15.0 0.00 0.24 0.00 69 1016.3
20260905093823 66 225 9.0 17.0 0.00 0.24 0.00 69 1016.4
20260905093802 66 270 10.0 17.0 0.00 0.24 0.00 69 1016.3
20260905093635 66 248 9.0 17.0 0.00 0.24 0.00 69 1016.4
20260905093455 66 270 9.0 17.0 0.00 0.24 0.00 69 1016.5
20260905093305 66 248 9.0 15.0 0.00 0.24 0.00 69 1016.4
20260905093127 66 225 9.0 16.0 0.00 0.24 0.00 69 1016.4
20260905092935 66 270 9.0 16.0 0.00 0.24 0.00 68 1016.4
20260905092750 66 180 9.0 16.0 0.00 0.24 0.00 69 1016.4
20260905092612 66 248 9.0 12.0 0.00 0.24 0.00 68 1016.4
20260905092420 66 202 9.0 16.0 0.00 0.24 0.00 68 1016.3
20260905092235 66 225 9.0 17.0 0.00 0.24 0.00 68 1016.3
20260905092055 66 270 9.0 17.0 0.00 0.24 0.00 68 1016.3
20260905091919 66 225 9.0 17.0 0.00 0.24 0.00 69 1016.4
20260905091725 66 270 9.0 15.0 0.00 0.24 0.00 69 1016.3
20260905091550 66 225 8.0 15.0 0.00 0.24 0.00 69 1016.3
20260905091410 66 248 8.0 14.0 0.00 0.24 0.00 69 1016.3
20260905091230 66 270 9.0 14.0 0.00 0.24 0.00 69 1016.2
20260905091040 66 248 9.0 14.0 0.00 0.24 0.00 69 1016.3
20260905090848 66 292 9.0 18.0 0.00 0.24 0.00 69 1016.3
20260905090700 66 248 10.0 18.0 0.00 0.24 0.00 69 1016.3
20260905090503 66 292 9.0 18.0 0.00 0.24 0.00 69 1016.2
20260905090347 66 225 9.0 16.0 0.00 0.24 0.00 68 1016.3
20260905090320 66 292 9.0 16.0 0.00 0.24 0.00 68 1016.2
20260905090130 66 292 9.0 16.0 0.00 0.24 0.00 69 1016.1
20260905085945 66 270 8.0 13.0 0.00 0.24 0.00 68 1016.3
20260905085755 66 292 8.0 12.0 0.00 0.24 0.00 69 1016.1
20260905085602 66 248 8.0 17.0 0.00 0.24 0.00 69 1016.2
20260905085415 66 180 8.0 17.0 0.00 0.24 0.00 70 1016.2
20260905085220 66 225 8.0 17.0 0.00 0.24 0.00 70 1016.3
20260905085024 66 248 8.0 11.0 0.00 0.24 0.00 69 1016.2
20260905084835 66 270 8.0 15.0 0.00 0.24 0.00 69 1016.0
20260905084655 66 225 9.0 15.0 0.00 0.24 0.00 68 1016.1
20260905084608 66 248 9.0 15.0 0.00 0.24 0.00 69 1016.1
20260905084500 66 248 9.0 15.0 0.00 0.24 0.00 69 1016.2
20260905084300 65 292 8.0 15.0 0.00 0.24 0.00 69 1016.0
20260905084120 65 270 8.0 15.0 0.00 0.24 0.00 70 1015.9
20260905083924 65 202 8.0 15.0 0.00 0.24 0.00 71 1016.0
20260905083740 65 225 9.0 15.0 0.00 0.24 0.00 71 1016.0
20260905083602 65 248 8.0 15.0 0.00 0.24 0.00 70 1016.0
20260905083420 65 248 8.0 15.0 0.00 0.24 0.00 71 1016.0
20260905083232 65 270 9.0 15.0 0.00 0.24 0.00 70 1016.1
20260905083055 65 292 8.0 14.0 0.00 0.24 0.00 72 1016.1
20260905082915 65 270 8.0 14.0 0.00 0.24 0.00 71 1016.1
20260905082742 65 248 8.0 10.0 0.00 0.24 0.00 73 1016.0
20260905082720 65 135 9.0 12.0 0.00 0.24 0.00 73 1016.0
20260905082530 65 225 9.0 12.0 0.00 0.24 0.00 73 1016.0
20260905082335 65 248 8.0 12.0 0.00 0.24 0.00 74 1016.0
20260905082139 65 225 8.0 15.0 0.00 0.24 0.00 73 1016.0
20260905081940 65 292 8.0 15.0 0.00 0.24 0.00 73 1016.0
20260905081752 65 248 8.0 14.0 0.00 0.24 0.00 73 1016.1
20260905081610 65 225 7.0 13.0 0.00 0.24 0.00 73 1016.0
20260905081420 65 248 7.0 12.0 0.00 0.24 0.00 75 1016.0
20260905081240 65 225 7.0 12.0 0.00 0.24 0.00 75 1016.0
20260905081055 64 270 8.0 12.0 0.00 0.24 0.00 75 1016.0
20260905080905 64 292 7.0 10.0 0.00 0.24 0.00 75 1016.0
20260905080726 64 225 7.0 10.0 0.00 0.24 0.00 75 1016.0
20260905080545 64 270 7.0 10.0 0.00 0.24 0.00 76 1016.0
20260905080350 64 292 7.0 10.0 0.00 0.24 0.00 76 1015.9
20260905080150 64 248 7.0 10.0 0.00 0.24 0.00 76 1016.0
20260905080000 64 292 7.0 11.0 0.00 0.24 0.00 76 1015.9
20260905075811 64 248 7.0 11.0 0.00 0.24 0.00 77 1015.9
20260905075620 64 315 7.0 12.0 0.00 0.24 0.00 77 1015.8
20260905075440 64 225 8.0 12.0 0.00 0.24 0.00 77 1015.9
20260905075300 64 292 8.0 12.0 0.00 0.24 0.00 78 1015.8
20260905075110 64 180 8.0 12.0 0.00 0.24 0.00 77 1015.8
20260905074920 64 270 8.0 12.0 0.00 0.24 0.00 77 1015.8
20260905074725 64 202 7.0 12.0 0.00 0.24 0.00 78 1015.8
20260905074550 63 248 7.0 12.0 0.00 0.24 0.00 78 1015.8
20260905074410 63 270 7.0 12.0 0.00 0.24 0.00 77 1015.8
20260905074224 63 225 7.0 11.0 0.00 0.24 0.00 78 1015.7
20260905074044 63 248 8.0 13.0 0.00 0.24 0.00 78 1015.7
20260905073849 63 225 8.0 13.0 0.00 0.24 0.00 79 1015.7
20260905073708 63 248 8.0 16.0 0.00 0.24 0.00 79 1015.8
20260905073525 63 248 8.0 16.0 0.00 0.24 0.00 80 1015.7
20260905073345 63 225 8.0 16.0 0.00 0.24 0.00 79 1015.7
20260905073135 63 202 7.0 15.0 0.00 0.24 0.00 79 1015.8
20260905072939 63 292 7.0 15.0 0.00 0.24 0.00 79 1015.7
20260905072750 63 225 7.0 15.0 0.00 0.24 0.00 80 1015.6
20260905072613 63 225 7.0 15.0 0.00 0.24 0.00 79 1015.7
20260905072434 63 270 7.0 10.0 0.00 0.24 0.00 80 1015.7
20260905072245 63 248 7.0 10.0 0.00 0.24 0.00 80 1015.6
20260905072104 63 248 7.0 11.0 0.00 0.24 0.00 80 1015.6
20260905071910 62 248 7.0 11.0 0.00 0.24 0.00 80 1015.6
20260905071839 62 202 7.0 11.0 0.00 0.24 0.00 80 1015.6
20260905071714 62 270 7.0 12.0 0.00 0.24 0.00 81 1015.6
20260905071520 62 270 7.0 12.0 0.00 0.24 0.00 81 1015.5
20260905071335 62 270 7.0 12.0 0.00 0.24 0.00 81 1015.5
20260905071155 62 202 7.0 11.0 0.00 0.24 0.00 81 1015.4
20260905071005 62 248 7.0 11.0 0.00 0.24 0.00 81 1015.5
20260905070820 62 248 7.0 10.0 0.00 0.24 0.00 82 1015.5
20260905070639 62 292 7.0 10.0 0.00 0.24 0.00 82 1015.4
20260905070448 62 202 7.0 12.0 0.00 0.24 0.00 82 1015.4
20260905070305 62 225 7.0 14.0 0.00 0.24 0.00 82 1015.4
20260905070251 62 248 7.0 14.0 0.00 0.24 0.00 82 1015.4
20260905070125 62 225 7.0 14.0 0.00 0.24 0.00 82 1015.4
20260905065935 62 270 7.0 14.0 0.00 0.24 0.00 82 1015.4
20260905065750 62 248 7.0 11.0 0.00 0.24 0.00 82 1015.4
20260905065610 61 225 7.0 11.0 0.00 0.24 0.00 83 1015.4
20260905065424 61 270 7.0 11.0 0.00 0.24 0.00 82 1015.3
20260905065235 61 248 8.0 11.0 0.00 0.24 0.00 83 1015.4
20260905065038 61 248 7.0 11.0 0.00 0.24 0.00 83 1015.4
20260905064844 61 270 7.0 11.0 0.00 0.24 0.00 83 1015.3
20260905064705 61 225 6.0 11.0 0.00 0.24 0.00 83 1015.4
20260905064515 61 202 6.0 12.0 0.00 0.24 0.00 83 1015.4
20260905064417 61 202 6.0 12.0 0.00 0.24 0.00 83 1015.4
20260905064358 61 248 6.0 12.0 0.00 0.24 0.00 83 1015.4
20260905064155 61 248 6.0 12.0 0.00 0.24 0.00 83 1015.4
20260905063955 61 292 6.0 12.0 0.00 0.24 0.00 84 1015.4
20260905063804 61 292 7.0 12.0 0.00 0.24 0.00 84 1015.3
20260905063611 61 158 7.0 9.0 0.00 0.24 0.00 84 1015.3
20260905063410 61 225 7.0 11.0 0.00 0.24 0.00 84 1015.3
20260905063230 61 248 7.0 15.0 0.00 0.24 0.00 84 1015.3
20260905063035 60 248 7.0 15.0 0.00 0.24 0.00 84 1015.3
20260905062900 60 248 6.0 10.0 0.00 0.24 0.00 84 1015.4
20260905062704 60 180 6.0 10.0 0.00 0.24 0.00 85 1015.3
20260905062646 60 270 6.0 10.0 0.00 0.24 0.00 85 1015.3
20260905062525 60 202 6.0 10.0 0.00 0.24 0.00 85 1015.3
20260905062340 60 225 6.0 10.0 0.00 0.24 0.00 85 1015.3
20260905062200 60 202 6.0 10.0 0.00 0.24 0.00 85 1015.3
20260905062020 60 292 6.0 8.0 0.00 0.24 0.00 85 1015.2
20260905061844 60 225 6.0 8.0 0.00 0.24 0.00 85 1015.2
20260905061650 60 270 6.0 9.0 0.00 0.24 0.00 86 1015.1
20260905061500 60 270 6.0 10.0 0.00 0.24 0.00 86 1015.1
20260905061315 60 225 6.0 10.0 0.00 0.24 0.00 86 1015.1
20260905061135 60 248 6.0 11.0 0.00 0.24 0.00 86 1015.1
20260905061031 60 248 6.0 11.0 0.00 0.24 0.00 86 1015.1
20260905060944 60 248 6.0 11.0 0.00 0.24 0.00 86 1015.1
20260905060800 60 270 6.0 11.0 0.00 0.24 0.00 86 1015.1
20260905060610 60 225 6.0 8.0 0.00 0.24 0.00 86 1015.1
20260905060435 60 270 6.0 10.0 0.00 0.24 0.00 86 1015.0
20260905060255 59 248 6.0 10.0 0.00 0.24 0.00 87 1015.0
20260905060114 59 248 6.0 10.0 0.00 0.24 0.00 86 1015.0
20260905055925 59 225 5.0 8.0 0.00 0.24 0.00 87 1015.0
20260905055735 59 292 5.0 8.0 0.00 0.24 0.00 87 1015.0
20260905055550 59 248 6.0 8.0 0.00 0.24 0.00 87 1014.9
20260905055456 59 225 6.0 8.0 0.00 0.24 0.00 87 1015.0
20260905055410 59 248 6.0 8.0 0.00 0.24 0.00 87 1015.0
20260905055223 59 292 6.0 8.0 0.00 0.24 0.00 87 1014.9
20260905055040 59 248 5.0 8.0 0.00 0.24 0.00 88 1015.0
20260905054859 59 270 5.0 7.0 0.00 0.24 0.00 88 1015.0
20260905054720 59 292 5.0 7.0 0.00 0.24 0.00 88 1015.0
20260905054520 59 248 6.0 7.0 0.00 0.24 0.00 88 1014.9
20260905054330 59 248 5.0 7.0 0.00 0.24 0.00 88 1015.0
20260905054150 59 270 5.0 9.0 0.00 0.24 0.00 88 1015.0
20260905054003 59 248 6.0 9.0 0.00 0.24 0.00 88 1014.9
20260905053820 59 248 6.0 9.0 0.00 0.24 0.00 88 1014.9
20260905053652 59 202 5.0 8.0 0.00 0.24 0.00 88 1014.9
20260905053624 59 248 5.0 8.0 0.00 0.24 0.00 88 1014.9
20260905053430 58 248 5.0 10.0 0.00 0.24 0.00 88 1014.9
20260905053250 58 225 5.0 10.0 0.00 0.24 0.00 88 1014.9
20260905053055 58 248 5.0 8.0 0.00 0.24 0.00 89 1014.9
20260905052900 58 270 4.0 6.0 0.00 0.24 0.00 89 1014.9
20260905052714 58 225 4.0 8.0 0.00 0.24 0.00 89 1014.8
20260905052530 58 248 4.0 8.0 0.00 0.24 0.00 89 1014.8
20260905052340 58 202 5.0 8.0 0.00 0.24 0.00 89 1014.8
20260905052200 58 225 5.0 7.0 0.00 0.24 0.00 89 1014.7
20260905052049 58 292 5.0 7.0 0.00 0.24 0.00 89 1014.7
20260905052015 58 292 5.0 7.0 0.00 0.24 0.00 89 1014.7
20260905051835 58 270 5.0 7.0 0.00 0.24 0.00 89 1014.7
20260905051635 58 270 5.0 7.0 0.00 0.24 0.00 89 1014.7
20260905051450 58 315 5.0 7.0 0.00 0.24 0.00 89 1014.7
20260905051253 58 248 5.0 8.0 0.00 0.24 0.00 89 1014.8
20260905051110 58 225 5.0 8.0 0.00 0.24 0.00 89 1014.8
20260905050930 58 202 5.0 8.0 0.00 0.24 0.00 89 1014.8
20260905050753 58 248 5.0 6.0 0.00 0.24 0.00 89 1014.7
20260905050559 58 202 5.0 8.0 0.00 0.24 0.00 89 1014.6
20260905050404 58 248 5.0 8.0 0.00 0.24 0.00 89 1014.7
20260905050343 58 270 5.0 8.0 0.00 0.24 0.00 89 1014.7
20260905050225 58 225 5.0 8.0 0.00 0.24 0.00 90 1014.6
20260905050035 58 270 5.0 8.0 0.00 0.24 0.00 90 1014.6
20260905045855 58 202 5.0 8.0 0.00 0.24 0.00 90 1014.6
20260905045715 58 270 4.0 6.0 0.00 0.24 0.00 90 1014.7
20260905045520 58 270 5.0 6.0 0.00 0.24 0.00 90 1014.6
20260905045341 58 248 5.0 6.0 0.00 0.24 0.00 90 1014.6
20260905045205 58 248 5.0 8.0 0.00 0.24 0.00 90 1014.6
20260905045025 58 248 5.0 8.0 0.00 0.24 0.00 90 1014.5
20260905044835 58 248 4.0 8.0 0.00 0.24 0.00 90 1014.5
20260905044651 58 225 4.0 8.0 0.00 0.24 0.00 90 1014.5
20260905044523 58 248 4.0 8.0 0.00 0.24 0.00 90 1014.4
20260905044455 58 292 4.0 8.0 0.00 0.24 0.00 90 1014.4
20260905044315 58 225 4.0 7.0 0.00 0.24 0.00 90 1014.5
20260905044125 58 225 5.0 7.0 0.00 0.24 0.00 90 1014.5
20260905043930 58 248 5.0 7.0 0.00 0.24 0.00 90 1014.5
20260905043740 58 225 5.0 7.0 0.00 0.24 0.00 90 1014.4
20260905043602 58 270 6.0 7.0 0.00 0.24 0.00 90 1014.4
20260905043415 58 225 6.0 10.0 0.00 0.24 0.00 90 1014.4
20260905043230 58 270 6.0 10.0 0.00 0.24 0.00 89 1014.5
20260905043044 58 248 6.0 10.0 0.00 0.24 0.00 89 1014.4
20260905042855 58 225 6.0 9.0 0.00 0.24 0.00 89 1014.4
20260905042803 58 225 6.0 9.0 0.00 0.24 0.00 90 1014.4
20260905042700 58 225 6.0 9.0 0.00 0.24 0.00 90 1014.4
20260905042500 58 248 6.0 9.0 0.00 0.24 0.00 90 1014.3
20260905042300 58 270 5.0 7.0 0.00 0.24 0.00 90 1014.3
20260905042119 58 270 5.0 9.0 0.00 0.24 0.00 90 1014.2
20260905041940 58 270 5.0 9.0 0.00 0.24 0.00 90 1014.2
20260905041747 58 248 5.0 9.0 0.00 0.24 0.00 90 1014.2
20260905041555 58 248 5.0 7.0 0.00 0.24 0.00 90 1014.2
20260905041359 58 292 5.0 7.0 0.00 0.24 0.00 90 1014.2
20260905041200 58 270 5.0 8.0 0.00 0.24 0.00 90 1014.1
20260905041015 58 225 5.0 6.0 0.00 0.24 0.00 90 1014.2
20260905040917 58 270 6.0 7.0 0.00 0.24 0.00 90 1014.1
20260905040839 58 270 6.0 7.0 0.00 0.24 0.00 90 1014.1
20260905040704 58 270 6.0 9.0 0.00 0.24 0.00 89 1014.1
20260905040520 58 315 6.0 9.0 0.00 0.24 0.00 89 1014.1
20260905040340 58 270 6.0 9.0 0.00 0.24 0.00 89 1014.1
20260905040153 58 248 6.0 9.0 0.00 0.24 0.00 89 1014.1
20260905040015 58 292 6.0 9.0 0.00 0.24 0.00 89 1014.1
20260905035830 58 248 6.0 10.0 0.00 0.24 0.00 89 1014.1
20260905035638 58 248 6.0 10.0 0.00 0.24 0.00 89 1014.0
20260905035455 58 225 6.0 10.0 0.00 0.24 0.00 89 1014.1
20260905035315 58 248 6.0 10.0 0.00 0.24 0.00 89 1014.1
20260905035219 59 292 6.0 10.0 0.00 0.24 0.00 89 1014.1
20260905035130 59 225 6.0 10.0 0.00 0.24 0.00 89 1014.0
20260905034930 59 248 6.0 10.0 0.00 0.24 0.00 89 1014.0
20260905034730 59 248 5.0 10.0 0.00 0.24 0.00 89 1013.9
20260905034538 59 248 5.0 10.0 0.00 0.24 0.00 89 1014.0
20260905034355 59 270 5.0 10.0 0.00 0.24 0.00 89 1014.0
20260905034200 59 248 5.0 10.0 0.00 0.24 0.00 89 1014.0
20260905034000 59 292 6.0 10.0 0.00 0.24 0.00 89 1013.8
20260905033810 59 248 6.0 8.0 0.00 0.24 0.00 89 1013.8
20260905033615 59 292 6.0 9.0 0.00 0.24 0.00 89 1013.9
20260905033527 59 248 6.0 9.0 0.00 0.24 0.00 89 1013.8
20260905033430 59 248 6.0 9.0 0.00 0.24 0.00 89 1013.8
20260905033233 59 292 6.0 9.0 0.00 0.24 0.00 88 1013.8
20260905033101 59 225 6.0 8.0 0.00 0.24 0.00 89 1013.8
20260905032923 59 248 6.0 10.0 0.00 0.24 0.00 88 1013.7
20260905032801 59 225 6.0 12.0 0.00 0.24 0.00 88 1013.7
20260905032531 59 225 6.0 12.0 0.00 0.24 0.00 88 1013.7
20260905032355 59 248 6.0 12.0 0.00 0.24 0.00 88 1013.6
20260905032205 59 248 6.0 12.0 0.00 0.24 0.00 88 1013.6
20260905032024 59 248 6.0 12.0 0.00 0.24 0.00 88 1013.5
20260905031909 59 202 6.0 12.0 0.00 0.24 0.00 88 1013.6
20260905031839 59 202 6.0 10.0 0.00 0.24 0.00 88 1013.7
20260905031648 59 180 6.0 10.0 0.00 0.24 0.00 88 1013.6
20260905031502 60 292 7.0 9.0 0.00 0.24 0.00 88 1013.6
20260905031327 60 292 7.0 9.0 0.00 0.24 0.00 88 1013.6
20260905031130 60 248 7.0 11.0 0.00 0.24 0.00 88 1013.6
20260905030955 60 225 7.0 11.0 0.00 0.24 0.00 88 1013.6
20260905030803 60 248 7.0 15.0 0.00 0.24 0.00 87 1013.5
20260905030708 60 248 7.0 15.0 0.00 0.24 0.00 87 1013.5
20260905030415 60 248 7.0 15.0 0.00 0.24 0.00 87 1013.5
20260905030220 60 292 7.0 15.0 0.00 0.24 0.00 88 1013.4